Location: Flensburg
(54.6357°N, 9.5142°E)
Time: 07:54:51
(UTC+01:00)

ISS - Visible Passes

Search period start: 21 January 2018 00:00
Search period end: 31 January 2018 00:00
Orbit: 402 x 407 km, 51.6° (Epoch: 21 January)

Date Brightness Start Highest point End Pass type
(mag) Time Alt. Az. Time Alt. Az. Time Alt. Az.
27 Jan -1.1 19:38:36 10° SSW 19:39:08 13° SSW 19:39:08 13° SSW visible
28 Jan -1.9 18:46:52 10° SSW 18:49:05 18° SSE 18:49:05 18° SSE visible
29 Jan -1.4 17:55:37 10° S 17:57:02 12° SE 17:58:28 10° ESE visible
29 Jan -2.0 19:29:50 10° SW 19:31:38 25° SSW 19:31:38 25° SSW visible
30 Jan -2.5 18:37:47 10° SW 18:40:36 27° SSE 18:41:27 23° SE visible
30 Jan -0.8 20:13:30 10° WSW 20:14:06 14° WSW 20:14:06 14° WSW visible
